2021/01/24 23:30:00+0000,-39.57,-48.42,-33.49,-46.01,-56.52,-55.11
2021/01/24 23:31:01+0000,-39.44,-47.40,-33.79,-46.71,-55.45,-55.45
2021/01/24 23:31:53+0000,-38.12,-47.01,-34.04,-48.13,-56.19,-55.98
2021/01/24 23:32:45+0000,-37.52,-46.93,-33.97,-47.50,-56.24,-55.59
2021/01/24 23:33:37+0000,-36.97,-48.82,-33.53,-46.45,-55.74,-55.82
2021/01/24 23:34:29+0000,-38.41,-47.81,-34.62,-47.54,-55.55,-55.74
2021/01/24 23:35:21+0000,-37.79,-48.15,-33.89,-50.09,-55.31,-55.98
2021/01/24 23:36:13+0000,-38.36,-47.21,-34.37,-50.46,-55.75,-55.09
2021/01/24 23:37:05+0000,-38.87,-46.26,-34.06,-52.94,-55.40,-55.63
2021/01/24 23:37:57+0000,-37.54,-48.10,-34.06,-45.84,-56.16,-55.71
2021/01/24 23:38:49+0000,-38.92,-44.17,-34.37,-52.64,-55.84,-55.49
2021/01/24 23:39:41+0000,-38.78,-46.21,-33.77,-49.94,-56.33,-55.44
2021/01/24 23:40:34+0000,-38.04,-47.58,-33.96,-49.35,-55.75,-54.88
2021/01/24 23:41:34+0000,-38.25,-47.13,-34.14,-50.90,-55.96,-55.73
2021/01/24 23:42:26+0000,-38.90,-48.27,-34.02,-46.27,-56.07,-55.17
2021/01/24 23:43:18+0000,-37.96,-47.55,-33.51,-49.70,-55.78,-55.93
2021/01/24 23:44:10+0000,-38.50,-46.38,-33.64,-49.30,-56.58,-55.34
2021/01/24 23:45:02+0000,-36.97,-48.14,-33.82,-47.16,-55.93,-55.56
2021/01/24 23:45:54+0000,-38.02,-47.18,-34.00,-46.71,-55.06,-55.75
2021/01/24 23:46:46+0000,-37.51,-47.69,-34.03,-49.43,-54.03,-55.00
2021/01/24 23:47:38+0000,-35.72,-49.73,-34.06,-46.62,-55.89,-55.93
2021/01/24 23:48:30+0000,-35.49,-46.70,-34.27,-45.42,-56.32,-56.01
2021/01/24 23:49:22+0000,-36.65,-47.69,-34.16,-46.79,-55.97,-55.90
2021/01/24 23:50:14+0000,-37.34,-45.73,-34.17,-44.95,-55.24,-55.11
2021/01/24 23:51:15+0000,-37.98,-46.99,-34.21,-45.25,-55.42,-55.98
2021/01/24 23:52:07+0000,-37.01,-49.18,-33.87,-45.09,-56.04,-54.75
2021/01/24 23:52:59+0000,-35.21,-45.92,-34.24,-44.81,-56.36,-55.51
2021/01/24 23:53:51+0000,-34.35,-46.82,-33.45,-45.98,-55.90,-55.64
2021/01/24 23:54:43+0000,-36.66,-46.06,-33.97,-45.83,-55.68,-56.07
2021/01/24 23:55:35+0000,-35.78,-46.39,-33.77,-47.60,-53.77,-55.69
2021/01/24 23:56:27+0000,-36.24,-47.25,-34.26,-45.51,-56.55,-55.81
2021/01/24 23:57:19+0000,-37.17,-46.85,-33.55,-46.34,-56.11,-55.62
2021/01/24 23:58:11+0000,-36.45,-46.17,-33.67,-46.21,-56.31,-55.64
2021/01/24 23:59:03+0000,-36.81,-45.76,-33.56,-44.80,-53.80,-55.26
2021/01/24 23:59:56+0000,-36.66,-44.95,-33.13,-43.19,-56.32,-55.28
2021/01/25 00:00:51+0000,-36.24,-46.77,-33.61,-45.05,-56.34,-55.34
2021/01/25 00:01:51+0000,-35.72,-47.02,-33.78,-44.09,-55.77,-56.27
2021/01/25 00:02:43+0000,-35.84,-45.59,-33.67,-44.48,-56.15,-55.64
2021/01/25 00:03:35+0000,-36.11,-48.10,-34.31,-44.15,-55.78,-55.92
2021/01/25 00:04:27+0000,-35.34,-45.97,-33.70,-43.37,-55.46,-55.61
2021/01/25 00:05:19+0000,-35.29,-45.09,-33.33,-44.86,-56.29,-56.15
2021/01/25 00:06:11+0000,-35.60,-44.22,-34.17,-44.97,-56.38,-55.69
2021/01/25 00:07:03+0000,-35.06,-46.73,-34.37,-45.00,-56.08,-55.42
2021/01/25 00:07:55+0000,-34.93,-46.73,-33.39,-44.37,-56.19,-55.98
2021/01/25 00:08:47+0000,-35.64,-45.22,-33.82,-43.92,-56.09,-55.29
2021/01/25 00:09:40+0000,-36.39,-45.87,-34.00,-44.33,-55.81,-55.83
2021/01/25 00:10:32+0000,-37.63,-46.15,-34.00,-43.42,-56.04,-55.69
2021/01/25 00:11:30+0000,-37.23,-47.38,-34.41,-42.87,-56.18,-56.16
2021/01/25 00:12:22+0000,-37.64,-47.58,-33.75,-43.40,-56.28,-55.73
2021/01/25 00:13:14+0000,-37.73,-45.19,-32.82,-41.67,-56.03,-55.93
2021/01/25 00:14:06+0000,-37.31,-49.20,-33.71,-43.90,-55.86,-56.05
2021/01/25 00:14:58+0000,-37.29,-46.92,-34.56,-43.66,-56.13,-56.23
2021/01/25 00:15:50+0000,-37.15,-47.56,-32.82,-44.14,-55.80,-55.57
2021/01/25 00:16:42+0000,-35.61,-46.51,-34.50,-44.94,-55.69,-55.30
2021/01/25 00:17:34+0000,-35.41,-46.14,-34.45,-44.84,-56.48,-55.84
2021/01/25 00:18:26+0000,-37.16,-47.07,-34.29,-44.78,-56.37,-55.46
2021/01/25 00:19:18+0000,-36.89,-46.88,-32.54,-45.99,-56.47,-55.37
2021/01/25 00:20:11+0000,-37.36,-46.96,-33.47,-49.00,-56.29,-55.69
2021/01/25 00:21:09+0000,-38.02,-46.32,-33.37,-50.68,-55.91,-55.43
2021/01/25 00:22:01+0000,-38.75,-46.01,-34.27,-46.46,-56.33,-55.00
2021/01/25 00:22:53+0000,-37.79,-42.89,-32.85,-46.22,-56.00,-55.13
2021/01/25 00:23:45+0000,-37.66,-47.42,-32.80,-50.36,-55.95,-55.52
2021/01/25 00:24:37+0000,-37.37,-49.38,-33.19,-50.52,-56.09,-55.62
2021/01/25 00:25:29+0000,-38.23,-46.35,-34.36,-48.10,-55.67,-55.24
2021/01/25 00:26:21+0000,-38.42,-49.60,-33.29,-48.68,-55.74,-55.64
2021/01/25 00:27:13+0000,-37.38,-45.99,-34.43,-49.85,-55.69,-55.51
2021/01/25 00:28:05+0000,-37.61,-47.38,-33.81,-51.32,-55.56,-55.16
2021/01/25 00:28:57+0000,-36.93,-48.18,-34.33,-48.98,-56.25,-55.46
2021/01/25 00:29:50+0000,-38.05,-47.10,-33.59,-51.74,-56.09,-55.61
2021/01/25 00:30:42+0000,-36.77,-45.51,-34.14,-51.07,-56.10,-55.23
2021/01/25 00:31:42+0000,-37.50,-46.67,-34.20,-50.23,-55.97,-55.39
2021/01/25 00:32:34+0000,-37.14,-46.80,-34.04,-52.56,-56.92,-55.69
2021/01/25 00:33:26+0000,-37.62,-45.99,-33.76,-47.80,-56.33,-55.39
2021/01/25 00:34:18+0000,-38.15,-46.68,-33.18,-50.44,-56.14,-55.32
2021/01/25 00:35:11+0000,-37.45,-46.32,-33.34,-50.66,-56.12,-55.54
2021/01/25 00:36:03+0000,-37.66,-47.23,-34.27,-48.37,-56.30,-55.23
2021/01/25 00:36:55+0000,-37.78,-46.56,-33.26,-45.89,-56.34,-55.79
2021/01/25 00:37:47+0000,-37.14,-46.46,-33.77,-50.81,-56.36,-55.77
2021/01/25 00:38:39+0000,-37.13,-47.56,-33.16,-48.61,-56.56,-55.63
2021/01/25 00:39:31+0000,-37.39,-47.50,-33.11,-46.81,-56.06,-55.07
2021/01/25 00:40:23+0000,-37.74,-46.48,-33.82,-66.30,-56.53,-55.87
2021/01/25 00:41:23+0000,-37.50,-47.62,-33.88,-66.19,-56.03,-56.05
2021/01/25 00:42:15+0000,-38.52,-46.74,-33.68,-49.26,-56.20,-55.37
2021/01/25 00:43:07+0000,-38.23,-47.65,-33.98,-67.62,-56.60,-55.79
2021/01/25 00:43:59+0000,-38.58,-46.28,-33.76,-43.98,-56.19,-55.88
2021/01/25 00:44:51+0000,-36.65,-48.71,-33.72,-49.09,-56.12,-55.94
2021/01/25 00:45:43+0000,-38.39,-47.39,-34.55,-51.20,-56.11,-55.20
2021/01/25 00:46:35+0000,-38.93,-47.61,-33.48,-52.10,-56.37,-55.89
2021/01/25 00:47:27+0000,-36.79,-45.73,-33.87,-47.45,-55.97,-55.45
2021/01/25 00:48:19+0000,-37.75,-48.38,-34.12,-52.22,-56.30,-55.80
2021/01/25 00:49:11+0000,-38.01,-46.98,-34.26,-51.62,-56.51,-55.69
2021/01/25 00:50:04+0000,-37.25,-46.78,-34.34,-50.91,-55.58,-56.05
2021/01/25 00:51:04+0000,-37.91,-48.22,-27.46,-51.98,-56.37,-55.19
2021/01/25 00:51:56+0000,-36.48,-46.63,-34.25,-47.86,-56.21,-55.62
2021/01/25 00:52:48+0000,-37.81,-47.60,-34.48,-51.29,-56.16,-55.44
2021/01/25 00:53:40+0000,-38.62,-47.98,-33.60,-51.16,-55.98,-54.91
2021/01/25 00:54:32+0000,-38.69,-47.16,-34.64,-48.53,-55.62,-55.64
2021/01/25 00:55:24+0000,-36.92,-47.99,-34.65,-48.01,-56.25,-55.60
2021/01/25 00:56:16+0000,-38.78,-45.05,-34.15,-50.52,-55.70,-55.45
2021/01/25 00:57:08+0000,-36.92,-47.98,-34.41,-50.99,-56.74,-55.42
2021/01/25 00:58:01+0000,-37.98,-47.98,-34.43,-48.16,-56.10,-55.23
2021/01/25 00:58:53+0000,-38.05,-49.80,-33.81,-51.26,-56.00,-55.12
2021/01/25 00:59:45+0000,-37.47,-46.86,-34.83,-51.65,-55.10,-52.51
2021/01/25 01:00:37+0000,-37.18,-48.50,-34.29,-52.13,-55.98,-53.22
2021/01/25 01:01:38+0000,-36.58,-46.56,-34.85,-52.49,-55.47,-52.53
2021/01/25 01:02:30+0000,-37.13,-48.86,-34.72,-51.16,-55.40,-51.89
2021/01/25 01:03:22+0000,-36.95,-47.45,-34.26,-51.56,-55.59,-52.87
2021/01/25 01:04:14+0000,-37.28,-46.01,-33.54,-51.43,-55.52,-52.37
2021/01/25 01:05:06+0000,-36.55,-47.76,-34.54,-50.96,-55.65,-52.75
2021/01/25 01:05:58+0000,-37.25,-46.20,-34.57,-51.53,-55.82,-52.85
2021/01/25 01:06:50+0000,-36.73,-48.72,-33.72,-51.98,-55.96,-53.25
2021/01/25 01:07:42+0000,-36.61,-45.73,-34.23,-52.54,-54.84,-53.59
2021/01/25 01:08:34+0000,-36.86,-47.89,-34.55,-52.85,-55.41,-53.60
2021/01/25 01:09:26+0000,-37.87,-47.66,-34.76,-51.85,-55.36,-53.89
2021/01/25 01:10:19+0000,-37.77,-45.91,-34.26,-51.79,-55.47,-53.55
2021/01/25 01:11:23+0000,-37.41,-47.96,-34.37,-52.98,-55.35,-54.61
2021/01/25 01:12:15+0000,-37.11,-47.42,-34.31,-52.69,-55.42,-54.00
2021/01/25 01:13:07+0000,-36.97,-47.50,-33.52,-51.81,-55.83,-53.48
2021/01/25 01:13:59+0000,-36.61,-45.27,-34.51,-51.81,-55.62,-54.37
2021/01/25 01:14:51+0000,-35.80,-48.20,-34.28,-51.54,-55.81,-53.88
2021/01/25 01:15:43+0000,-37.12,-45.84,-34.57,-51.62,-55.59,-53.86
2021/01/25 01:16:35+0000,-36.35,-47.21,-33.56,-51.39,-55.30,-54.16
2021/01/25 01:17:27+0000,-36.07,-46.52,-34.29,-52.21,-55.62,-54.21
2021/01/25 01:18:19+0000,-35.95,-47.26,-34.09,-51.72,-55.47,-54.38
2021/01/25 01:19:11+0000,-37.50,-46.80,-34.33,-51.31,-55.98,-54.05
2021/01/25 01:20:04+0000,-36.99,-45.16,-34.06,-51.92,-54.79,-53.85
2021/01/25 01:21:09+0000,-37.72,-45.70,-33.49,-51.79,-55.31,-54.15
2021/01/25 01:22:01+0000,-38.09,-47.68,-33.73,-51.42,-55.03,-53.88
2021/01/25 01:22:53+0000,-35.06,-46.90,-33.71,-51.04,-55.43,-53.94
2021/01/25 01:23:45+0000,-37.53,-45.69,-33.84,-51.84,-55.46,-53.74
2021/01/25 01:24:37+0000,-36.70,-48.69,-33.92,-51.73,-55.48,-53.63
2021/01/25 01:25:29+0000,-36.35,-46.97,-34.21,-52.04,-55.34,-54.32
2021/01/25 01:26:21+0000,-36.77,-47.88,-34.09,-48.66,-55.72,-53.86
2021/01/25 01:27:13+0000,-36.70,-45.68,-34.48,-51.60,-55.89,-53.85
2021/01/25 01:28:05+0000,-36.67,-46.08,-33.85,-51.51,-55.65,-53.73
2021/01/25 01:28:57+0000,-35.70,-46.79,-34.52,-52.03,-55.38,-54.26
2021/01/25 01:29:50+0000,-36.71,-43.42,-34.07,-51.41,-55.44,-54.63
2021/01/25 01:30:42+0000,-33.59,-45.28,-34.56,-51.75,-55.82,-53.73
2021/01/25 01:31:42+0000,-33.50,-44.49,-34.37,-51.69,-55.80,-54.27
2021/01/25 01:32:34+0000,-33.18,-47.41,-34.17,-51.73,-55.22,-54.23
2021/01/25 01:33:26+0000,-36.52,-45.78,-34.90,-51.25,-55.46,-54.33
2021/01/25 01:34:18+0000,-36.56,-45.27,-34.41,-51.82,-54.95,-54.29
2021/01/25 01:35:10+0000,-38.69,-46.26,-34.07,-51.69,-55.21,-54.22
2021/01/25 01:36:02+0000,-37.65,-47.17,-33.72,-51.91,-55.91,-54.12
2021/01/25 01:36:54+0000,-38.28,-46.92,-33.68,-51.50,-55.76,-54.26
2021/01/25 01:37:46+0000,-37.84,-46.33,-34.33,-51.52,-55.69,-53.75
2021/01/25 01:38:38+0000,-37.62,-46.97,-34.49,-52.03,-55.31,-54.33
2021/01/25 01:39:30+0000,-36.85,-45.40,-34.06,-52.24,-55.60,-54.46
2021/01/25 01:40:23+0000,-36.76,-51.05,-34.68,-51.47,-55.49,-54.74
2021/01/25 01:41:23+0000,-37.16,-48.30,-34.44,-51.79,-55.30,-54.46
2021/01/25 01:42:15+0000,-37.15,-48.89,-34.30,-51.45,-55.03,-53.70
2021/01/25 01:43:07+0000,-37.76,-51.19,-34.66,-51.55,-55.24,-51.66
2021/01/25 01:43:59+0000,-37.48,-46.03,-34.30,-52.01,-55.04,-52.50
2021/01/25 01:44:51+0000,-35.91,-51.99,-34.56,-52.20,-55.37,-52.58
2021/01/25 01:45:43+0000,-35.87,-49.23,-34.23,-51.76,-55.00,-53.13
2021/01/25 01:46:35+0000,-37.05,-45.71,-34.38,-51.65,-55.97,-54.79
2021/01/25 01:47:27+0000,-37.57,-43.14,-34.14,-51.26,-55.30,-54.38
2021/01/25 01:48:19+0000,-36.77,-47.73,-34.69,-51.44,-55.31,-54.32
2021/01/25 01:49:11+0000,-36.47,-49.26,-34.88,-50.83,-55.28,-54.92
2021/01/25 01:50:04+0000,-37.64,-44.61,-34.67,-51.87,-56.12,-54.19
2021/01/25 01:51:04+0000,-37.10,-46.08,-34.80,-51.24,-55.40,-54.45
2021/01/25 01:51:56+0000,-37.06,-42.35,-34.51,-51.80,-55.25,-54.58
2021/01/25 01:52:48+0000,-30.87,-48.43,-34.43,-51.41,-55.75,-54.64
2021/01/25 01:53:40+0000,-37.38,-46.37,-34.68,-51.26,-55.68,-54.71
2021/01/25 01:54:32+0000,-36.92,-45.93,-34.45,-51.68,-55.63,-54.49
2021/01/25 01:55:24+0000,-31.71,-45.66,-34.38,-52.01,-55.76,-54.87
2021/01/25 01:56:16+0000,-38.00,-50.34,-34.84,-50.97,-55.86,-54.35
2021/01/25 01:57:08+0000,-36.29,-51.22,-34.65,-51.90,-55.42,-54.72
2021/01/25 01:58:00+0000,-37.06,-46.49,-34.71,-51.06,-56.17,-55.19
2021/01/25 01:58:52+0000,-37.12,-51.66,-33.89,-51.60,-56.35,-54.65
2021/01/25 01:59:45+0000,-38.06,-49.22,-34.95,-51.64,-55.79,-55.21
2021/01/25 02:00:37+0000,-37.08,-51.88,-34.20,-51.19,-56.31,-55.11
2021/01/25 02:01:38+0000,-37.80,-49.90,-34.89,-51.97,-56.17,-54.69
2021/01/25 02:02:30+0000,-36.82,-47.09,-34.69,-51.38,-55.45,-53.38
2021/01/25 02:03:22+0000,-36.62,-48.59,-34.82,-51.66,-55.86,-54.34
2021/01/25 02:04:14+0000,-37.43,-48.78,-34.24,-52.01,-56.04,-54.30
2021/01/25 02:05:06+0000,-37.47,-52.12,-35.12,-51.92,-56.32,-53.99
2021/01/25 02:05:58+0000,-36.90,-46.69,-34.55,-51.70,-55.96,-54.14
2021/01/25 02:06:50+0000,-35.82,-51.77,-34.56,-51.84,-54.80,-53.87
2021/01/25 02:07:42+0000,-37.86,-49.71,-34.40,-52.51,-55.33,-54.46
2021/01/25 02:08:34+0000,-37.54,-47.16,-34.51,-50.97,-55.90,-54.51
2021/01/25 02:09:26+0000,-37.59,-46.87,-34.06,-51.44,-55.71,-54.61
2021/01/25 02:10:19+0000,-36.66,-50.00,-34.75,-50.99,-55.65,-54.34
2021/01/25 02:11:19+0000,-37.01,-49.47,-34.17,-48.02,-55.84,-55.24
2021/01/25 02:12:11+0000,-36.93,-49.36,-34.65,-46.70,-55.65,-54.30
2021/01/25 02:13:03+0000,-37.74,-47.36,-34.90,-46.02,-55.52,-55.23
2021/01/25 02:13:55+0000,-37.10,-46.82,-34.65,-46.57,-55.91,-55.18
2021/01/25 02:14:47+0000,-37.38,-48.92,-34.85,-47.86,-55.40,-55.15
2021/01/25 02:15:39+0000,-37.36,-49.56,-34.74,-46.25,-56.51,-55.07
2021/01/25 02:16:31+0000,-36.74,-47.26,-34.82,-48.06,-55.61,-55.09
2021/01/25 02:17:24+0000,-36.57,-48.61,-34.90,-46.35,-55.97,-54.95
2021/01/25 02:18:16+0000,-37.11,-48.70,-34.56,-45.81,-56.02,-54.68
2021/01/25 02:19:08+0000,-36.58,-50.21,-34.81,-46.65,-55.45,-54.76
2021/01/25 02:20:00+0000,-37.47,-48.58,-34.31,-47.42,-55.86,-55.30
2021/01/25 02:21:00+0000,-37.59,-48.28,-35.15,-47.27,-56.40,-54.51
2021/01/25 02:21:52+0000,-37.10,-50.89,-35.10,-46.68,-55.73,-55.09
2021/01/25 02:22:44+0000,-38.12,-49.90,-34.68,-45.74,-56.04,-55.34
2021/01/25 02:23:36+0000,-38.49,-50.79,-34.06,-46.49,-55.68,-54.24
2021/01/25 02:24:28+0000,-37.19,-49.19,-34.40,-46.64,-55.49,-55.35
2021/01/25 02:25:20+0000,-37.92,-50.47,-34.41,-45.75,-55.60,-54.91
2021/01/25 02:26:12+0000,-35.96,-50.49,-34.56,-46.34,-55.79,-54.65
2021/01/25 02:27:04+0000,-35.02,-50.78,-34.38,-46.36,-55.47,-54.99
2021/01/25 02:27:56+0000,-37.31,-50.59,-34.40,-45.03,-55.92,-54.32
2021/01/25 02:28:48+0000,-35.98,-50.28,-34.97,-45.47,-56.01,-54.69
2021/01/25 02:29:41+0000,-36.19,-50.68,-34.03,-45.63,-56.36,-55.01
2021/01/25 02:30:33+0000,-36.56,-49.58,-34.21,-45.75,-55.83,-55.06
2021/01/25 02:31:33+0000,-33.93,-49.79,-34.19,-46.26,-55.90,-54.74
2021/01/25 02:32:25+0000,-36.11,-49.35,-34.50,-46.23,-55.19,-54.54
2021/01/25 02:33:17+0000,-35.36,-50.74,-34.57,-44.74,-55.84,-55.19
2021/01/25 02:34:10+0000,-35.82,-50.43,-34.94,-45.54,-55.82,-55.53
2021/01/25 02:35:02+0000,-34.58,-49.97,-34.60,-46.65,-55.95,-55.29
2021/01/25 02:35:54+0000,-33.93,-50.38,-34.40,-46.98,-55.54,-54.81
2021/01/25 02:36:46+0000,-35.56,-50.85,-34.95,-46.35,-55.55,-52.79
2021/01/25 02:37:38+0000,-35.51,-51.18,-34.26,-45.81,-55.25,-53.13
2021/01/25 02:38:30+0000,-36.41,-50.35,-35.08,-45.73,-54.88,-53.08
2021/01/25 02:39:22+0000,-36.44,-50.78,-34.39,-45.92,-54.98,-54.59
2021/01/25 02:40:14+0000,-37.07,-49.84,-34.83,-47.14,-55.31,-53.73
2021/01/25 02:41:15+0000,-35.64,-50.04,-34.61,-45.32,-54.81,-54.00
2021/01/25 02:42:07+0000,-35.55,-50.85,-34.43,-44.22,-55.55,-54.28
2021/01/25 02:42:59+0000,-36.67,-47.58,-34.41,-44.43,-54.55,-53.54
2021/01/25 02:43:51+0000,-36.60,-47.47,-34.81,-43.55,-54.48,-53.93
2021/01/25 02:44:43+0000,-35.58,-48.77,-34.58,-45.36,-54.72,-53.90
2021/01/25 02:45:35+0000,-35.08,-48.27,-34.52,-45.86,-54.66,-53.59
2021/01/25 02:46:27+0000,-34.58,-47.32,-34.52,-45.28,-55.06,-53.71
2021/01/25 02:47:19+0000,-34.92,-47.01,-34.68,-45.92,-54.76,-53.82
2021/01/25 02:48:11+0000,-36.22,-47.68,-34.19,-45.86,-54.81,-54.14
2021/01/25 02:49:03+0000,-36.12,-49.46,-33.88,-45.73,-54.55,-54.05
2021/01/25 02:49:56+0000,-36.14,-47.80,-34.39,-46.03,-54.69,-54.44
2021/01/25 02:50:48+0000,-35.94,-48.56,-34.73,-46.14,-54.82,-53.54
2021/01/25 02:51:47+0000,-36.93,-49.56,-34.49,-45.57,-55.36,-53.07
2021/01/25 02:52:39+0000,-36.45,-47.90,-34.78,-45.48,-55.22,-53.73
2021/01/25 02:53:31+0000,-36.77,-49.07,-34.39,-46.17,-54.89,-53.65
2021/01/25 02:54:23+0000,-36.73,-48.25,-34.37,-46.56,-55.08,-53.90
2021/01/25 02:55:15+0000,-36.76,-47.76,-34.08,-45.28,-55.43,-53.70
2021/01/25 02:56:07+0000,-35.48,-48.96,-34.84,-45.90,-55.94,-53.90
2021/01/25 02:56:59+0000,-34.66,-48.91,-34.73,-45.92,-54.56,-53.70
2021/01/25 02:57:51+0000,-34.39,-49.36,-34.51,-45.74,-55.44,-53.62
2021/01/25 02:58:43+0000,-35.97,-47.98,-35.04,-45.89,-54.53,-53.53
2021/01/25 02:59:35+0000,-36.13,-46.77,-34.56,-45.98,-54.59,-53.46
2021/01/25 03:00:28+0000,-34.42,-47.72,-34.48,-46.03,-55.13,-53.39
2021/01/25 03:01:29+0000,-35.80,-48.01,-34.67,-46.34,-54.76,-53.35
2021/01/25 03:02:21+0000,-34.76,-48.84,-34.51,-45.42,-54.47,-53.23
2021/01/25 03:03:13+0000,-35.33,-47.19,-35.12,-46.01,-54.30,-53.35
2021/01/25 03:04:05+0000,-36.29,-48.84,-34.05,-45.72,-54.94,-53.37
2021/01/25 03:04:57+0000,-34.50,-46.70,-33.91,-45.47,-55.27,-54.42
2021/01/25 03:05:49+0000,-35.82,-49.18,-34.52,-46.24,-54.61,-53.48
2021/01/25 03:06:41+0000,-35.47,-47.70,-34.56,-46.35,-54.83,-53.79
2021/01/25 03:07:33+0000,-36.03,-47.24,-33.95,-45.20,-55.06,-53.85
2021/01/25 03:08:25+0000,-35.59,-46.63,-34.45,-46.77,-55.31,-53.73
2021/01/25 03:09:17+0000,-35.58,-48.65,-34.61,-45.75,-55.22,-53.66
2021/01/25 03:10:10+0000,-35.28,-48.03,-34.63,-45.62,-55.16,-54.74
2021/01/25 03:11:10+0000,-35.59,-48.14,-34.08,-46.23,-55.14,-54.76
2021/01/25 03:12:02+0000,-36.10,-48.14,-33.67,-45.75,-55.60,-54.22
2021/01/25 03:12:54+0000,-35.21,-47.50,-34.21,-45.31,-54.87,-53.49
2021/01/25 03:13:46+0000,-35.82,-47.75,-34.21,-45.87,-55.32,-54.13
2021/01/25 03:14:38+0000,-35.87,-48.27,-33.56,-44.92,-55.17,-52.90
2021/01/25 03:15:31+0000,-36.46,-47.73,-33.90,-46.29,-55.35,-52.35
2021/01/25 03:16:23+0000,-36.65,-48.35,-33.99,-46.72,-54.88,-52.02
2021/01/25 03:17:15+0000,-36.25,-49.32,-33.95,-45.55,-54.67,-52.29
2021/01/25 03:18:07+0000,-36.05,-48.60,-34.17,-46.27,-55.13,-52.09
2021/01/25 03:18:59+0000,-36.51,-48.04,-33.98,-46.21,-55.20,-53.31
2021/01/25 03:19:51+0000,-36.22,-48.06,-34.43,-45.65,-55.05,-53.48
2021/01/25 03:20:43+0000,-36.54,-48.15,-34.08,-45.62,-55.16,-53.84
2021/01/25 03:21:48+0000,-37.05,-47.67,-34.35,-46.28,-55.23,-53.79
2021/01/25 03:22:40+0000,-36.06,-46.61,-34.27,-45.32,-55.50,-54.23
2021/01/25 03:23:32+0000,-35.78,-49.38,-33.98,-46.08,-54.72,-54.71
2021/01/25 03:24:24+0000,-36.34,-48.46,-33.70,-46.02,-55.33,-54.35
2021/01/25 03:25:16+0000,-35.96,-48.51,-33.59,-45.32,-55.57,-54.29
2021/01/25 03:26:09+0000,-36.00,-48.93,-33.81,-45.69,-55.56,-54.59
2021/01/25 03:27:01+0000,-36.58,-47.91,-34.36,-45.77,-55.55,-54.79
2021/01/25 03:27:53+0000,-35.50,-47.53,-34.43,-45.81,-55.12,-54.65
2021/01/25 03:28:45+0000,-37.12,-48.95,-33.94,-44.99,-55.67,-54.77
2021/01/25 03:29:37+0000,-36.43,-48.16,-33.89,-46.10,-55.59,-54.90
2021/01/25 03:30:29+0000,-36.01,-48.62,-34.22,-45.34,-55.42,-54.99
2021/01/25 03:31:34+0000,-36.83,-48.18,-34.11,-46.07,-55.68,-54.68
2021/01/25 03:32:26+0000,-35.98,-47.36,-34.22,-46.05,-55.25,-54.94
2021/01/25 03:33:18+0000,-36.36,-48.16,-33.87,-45.12,-55.97,-55.38
2021/01/25 03:34:11+0000,-35.74,-48.86,-33.68,-45.83,-55.45,-54.93
2021/01/25 03:35:03+0000,-35.90,-48.22,-34.11,-45.96,-55.96,-54.29
2021/01/25 03:35:55+0000,-35.45,-47.69,-34.42,-46.08,-55.29,-54.75
2021/01/25 03:36:47+0000,-36.22,-48.77,-34.06,-45.83,-55.51,-54.23
2021/01/25 03:37:39+0000,-36.13,-48.01,-34.03,-46.48,-55.37,-53.65
2021/01/25 03:38:31+0000,-36.16,-48.28,-33.84,-45.31,-55.21,-54.46
2021/01/25 03:39:23+0000,-34.79,-48.60,-34.03,-45.69,-55.70,-54.05
2021/01/25 03:40:15+0000,-36.06,-47.88,-34.15,-46.10,-55.30,-54.96
2021/01/25 03:41:13+0000,-36.44,-47.76,-33.71,-51.06,-56.06,-54.88
2021/01/25 03:42:05+0000,-37.13,-48.30,-33.13,-52.55,-55.94,-54.77
2021/01/25 03:42:57+0000,-37.08,-47.93,-33.50,-52.57,-56.22,-54.56
2021/01/25 03:43:49+0000,-36.90,-48.29,-33.66,-51.67,-55.51,-55.06
2021/01/25 03:44:41+0000,-36.25,-49.02,-33.97,-51.83,-55.86,-53.90
2021/01/25 03:45:33+0000,-36.97,-48.51,-33.63,-51.62,-55.27,-54.03
2021/01/25 03:46:25+0000,-35.76,-49.08,-33.53,-51.80,-55.67,-54.79
2021/01/25 03:47:17+0000,-36.91,-48.67,-33.74,-52.04,-55.60,-54.60
2021/01/25 03:48:10+0000,-37.55,-48.96,-33.94,-52.22,-55.75,-54.70
2021/01/25 03:49:02+0000,-36.24,-49.13,-34.10,-52.58,-55.94,-53.89
2021/01/25 03:49:54+0000,-36.46,-48.98,-33.81,-52.03,-55.88,-55.19
2021/01/25 03:50:46+0000,-37.15,-48.20,-33.92,-52.43,-56.05,-54.87
2021/01/25 03:51:52+0000,-35.94,-48.43,-33.44,-51.83,-56.40,-54.61
2021/01/25 03:52:44+0000,-37.25,-48.19,-33.89,-51.89,-56.08,-54.61
2021/01/25 03:53:36+0000,-37.62,-48.40,-34.25,-51.68,-55.55,-54.01
2021/01/25 03:54:28+0000,-36.42,-47.71,-33.81,-52.32,-55.97,-54.28
2021/01/25 03:55:20+0000,-37.17,-46.83,-33.79,-51.63,-55.59,-55.14
2021/01/25 03:56:13+0000,-36.99,-47.17,-33.96,-51.95,-55.60,-54.69
2021/01/25 03:57:05+0000,-37.19,-46.72,-33.86,-51.89,-55.55,-54.73
2021/01/25 03:57:57+0000,-36.30,-46.26,-33.91,-52.21,-55.74,-54.59
2021/01/25 03:58:49+0000,-36.32,-47.72,-34.03,-51.42,-55.93,-54.52
2021/01/25 03:59:41+0000,-36.02,-47.39,-34.13,-51.72,-55.04,-54.21
2021/01/25 04:00:33+0000,-36.63,-47.03,-33.92,-51.66,-55.95,-55.14
2021/01/25 04:01:34+0000,-36.50,-46.98,-33.96,-52.35,-55.17,-54.23
2021/01/25 04:02:26+0000,-36.80,-47.79,-33.38,-51.24,-55.24,-54.61
2021/01/25 04:03:18+0000,-36.26,-46.61,-33.21,-51.68,-55.99,-55.15
2021/01/25 04:04:10+0000,-36.74,-47.71,-32.81,-51.74,-56.14,-54.62
2021/01/25 04:05:02+0000,-36.24,-47.00,-33.78,-52.12,-55.97,-55.28
2021/01/25 04:05:54+0000,-36.63,-47.74,-33.80,-51.86,-56.55,-54.40
2021/01/25 04:06:46+0000,-35.06,-47.30,-34.14,-51.99,-55.69,-54.73
2021/01/25 04:07:38+0000,-37.44,-48.05,-33.49,-51.61,-55.66,-54.76
2021/01/25 04:08:30+0000,-36.78,-49.28,-34.22,-51.89,-55.59,-54.18
2021/01/25 04:09:22+0000,-35.80,-48.38,-34.02,-51.86,-55.51,-53.75
2021/01/25 04:10:15+0000,-36.42,-48.39,-33.82,-51.78,-55.35,-54.22
2021/01/25 04:11:15+0000,-36.55,-48.32,-33.50,-51.04,-55.93,-53.83
2021/01/25 04:12:07+0000,-36.22,-47.12,-33.22,-51.09,-55.78,-54.13
2021/01/25 04:12:59+0000,-37.69,-48.26,-33.33,-51.83,-55.67,-54.99
2021/01/25 04:13:51+0000,-35.42,-48.20,-33.41,-51.47,-55.63,-53.30
2021/01/25 04:14:43+0000,-36.32,-46.76,-33.03,-51.60,-56.24,-52.29
2021/01/25 04:15:35+0000,-36.48,-48.08,-33.35,-51.50,-55.51,-53.67
2021/01/25 04:16:27+0000,-36.31,-46.83,-33.03,-51.66,-55.53,-53.21
2021/01/25 04:17:19+0000,-36.89,-46.61,-33.12,-51.75,-55.61,-53.40
2021/01/25 04:18:11+0000,-36.13,-47.14,-33.35,-51.97,-56.86,-53.44
2021/01/25 04:19:03+0000,-36.33,-49.08,-33.77,-51.85,-55.47,-53.31
2021/01/25 04:19:56+0000,-35.74,-48.88,-33.31,-52.17,-55.57,-53.57
2021/01/25 04:20:48+0000,-37.01,-49.02,-32.76,-51.83,-56.16,-54.11
2021/01/25 04:21:48+0000,-35.92,-47.46,-32.95,-51.83,-55.66,-53.70
2021/01/25 04:22:40+0000,-35.82,-47.86,-33.13,-52.32,-55.74,-53.45
2021/01/25 04:23:32+0000,-37.04,-48.36,-33.33,-52.93,-55.69,-54.23
2021/01/25 04:24:24+0000,-36.24,-47.13,-33.14,-51.61,-55.82,-54.91
2021/01/25 04:25:16+0000,-38.00,-48.68,-32.96,-52.08,-55.80,-54.72
2021/01/25 04:26:08+0000,-37.39,-48.15,-33.22,-52.41,-55.90,-54.32
2021/01/25 04:27:00+0000,-37.49,-49.86,-33.06,-51.68,-55.94,-53.61
2021/01/25 04:27:52+0000,-37.27,-51.20,-33.16,-51.83,-55.92,-54.32
2021/01/25 04:28:44+0000,-35.92,-50.89,-32.94,-53.30,-55.78,-52.78
2021/01/25 04:29:36+0000,-38.56,-50.21,-32.95,-52.53,-55.84,-52.60
2021/01/25 04:30:28+0000,-36.12,-50.35,-33.41,-52.24,-55.82,-53.28
2021/01/25 04:31:29+0000,-36.34,-50.32,-33.66,-52.75,-55.81,-54.72
2021/01/25 04:32:21+0000,-37.26,-50.53,-33.92,-52.25,-55.15,-54.34
2021/01/25 04:33:13+0000,-37.60,-49.98,-33.18,-51.70,-55.86,-54.96
2021/01/25 04:34:05+0000,-36.80,-50.64,-34.33,-51.89,-55.98,-54.99
2021/01/25 04:34:57+0000,-37.59,-50.57,-33.43,-51.64,-55.64,-55.10
2021/01/25 04:35:49+0000,-37.05,-50.41,-33.51,-52.06,-56.03,-54.34
2021/01/25 04:36:41+0000,-36.93,-50.59,-33.44,-51.94,-56.00,-53.72
2021/01/25 04:37:33+0000,-37.73,-49.80,-33.30,-51.67,-56.07,-54.64
2021/01/25 04:38:25+0000,-36.82,-50.38,-33.42,-51.49,-55.79,-54.43
2021/01/25 04:39:17+0000,-36.49,-50.62,-33.43,-51.41,-56.43,-54.45
2021/01/25 04:40:10+0000,-36.97,-49.67,-33.59,-51.52,-55.63,-54.33
2021/01/25 04:41:10+0000,-36.26,-49.80,-33.55,-51.69,-55.53,-54.18
2021/01/25 04:42:02+0000,-37.14,-49.88,-33.22,-52.26,-55.45,-53.99
2021/01/25 04:42:54+0000,-36.85,-50.17,-33.62,-51.93,-56.02,-54.15
2021/01/25 04:43:46+0000,-37.21,-50.17,-33.09,-51.58,-56.26,-54.18
2021/01/25 04:44:38+0000,-38.18,-50.36,-33.50,-51.37,-56.32,-53.13